contact:dominique.lefevre@mio.osupytheas.fr, maurice.libes@osupytheas.fr, didier.mallarino@osupytheas.fr
Project:EMSO http://www.emso-fr.org/EMSO-France
Depth: 2436.0 m
Title:EMSO Ligure Ouest : Data MII capteur MICROCAT
DateTime_Computer,Latitude,Longitude,Temperature,Conductivity,Pressure,DateTime_Instrument
DateTime_Computer,Latitude,Longitude,degC,S m-1,dbar,DateTime_Instrument
2023-02-20T00:01:00Z,42.805,6.029,13.3031,4.60111,2470.39,2023-2-20T02:03:26Z
2023-02-20T00:04:03Z,42.805,6.029,13.3031,4.60117,2470.39,2023-2-20T02:06:29Z
2023-02-20T00:07:06Z,42.805,6.029,13.3033,4.60124,2470.38,2023-2-20T02:09:32Z
2023-02-20T00:10:09Z,42.805,6.029,13.3028,4.60128,2470.343,2023-2-20T02:12:36Z
2023-02-20T00:13:12Z,42.805,6.029,13.3033,4.60114,2470.38,2023-2-20T02:15:39Z
2023-02-20T00:16:15Z,42.805,6.029,13.3036,4.60102,2470.343,2023-2-20T02:18:42Z
2023-02-20T00:19:18Z,42.805,6.029,13.3034,4.60121,2470.357,2023-2-20T02:21:45Z
2023-02-20T00:22:21Z,42.805,6.029,13.3029,4.60123,2470.366,2023-2-20T02:24:48Z
2023-02-20T00:25:24Z,42.805,6.029,13.3034,4.60130,2470.343,2023-2-20T02:27:51Z
2023-02-20T00:28:27Z,42.805,6.029,13.3031,4.60141,2470.334,2023-2-20T02:30:54Z
2023-02-20T00:31:31Z,42.805,6.029,13.3033,4.60126,2470.366,2023-2-20T02:33:57Z
2023-02-20T00:34:34Z,42.805,6.029,13.3069,4.60133,2470.366,2023-2-20T02:37:00Z
2023-02-20T00:37:37Z,42.805,6.029,13.3054,4.60136,2470.343,2023-2-20T02:40:03Z
2023-02-20T00:40:40Z,42.805,6.029,13.3073,4.60139,2470.357,2023-2-20T02:43:06Z
2023-02-20T00:43:43Z,42.805,6.029,13.3044,4.60144,2470.357,2023-2-20T02:46:09Z
2023-02-20T00:46:46Z,42.805,6.029,13.3076,4.60149,2470.357,2023-2-20T02:49:12Z
2023-02-20T00:49:49Z,42.805,6.029,13.3101,4.60150,2470.38,2023-2-20T02:52:16Z
2023-02-20T00:52:52Z,42.805,6.029,13.3091,4.60137,2470.366,2023-2-20T02:55:19Z
2023-02-20T00:55:55Z,42.805,6.029,13.3089,4.60126,2470.357,2023-2-20T02:58:22Z
2023-02-20T00:58:58Z,42.805,6.029,13.3093,4.60125,2470.38,2023-2-20T03:01:25Z
2023-02-20T01:02:01Z,42.805,6.029,13.3088,4.60122,2470.357,2023-2-20T03:04:28Z
2023-02-20T01:05:04Z,42.805,6.029,13.3084,4.60133,2470.366,2023-2-20T03:07:31Z
2023-02-20T01:08:07Z,42.805,6.029,13.3093,4.60135,2470.343,2023-2-20T03:10:34Z
2023-02-20T01:11:11Z,42.805,6.029,13.3084,4.60128,2470.357,2023-2-20T03:13:37Z
2023-02-20T01:14:14Z,42.805,6.029,13.3063,4.60135,2470.334,2023-2-20T03:16:40Z
2023-02-20T01:17:17Z,42.805,6.029,13.3080,4.60141,2470.38,2023-2-20T03:19:43Z
2023-02-20T01:20:20Z,42.805,6.029,13.3092,4.60116,2470.366,2023-2-20T03:22:46Z
2023-02-20T01:23:23Z,42.805,6.029,13.3084,4.60127,2470.366,2023-2-20T03:25:49Z
2023-02-20T01:26:26Z,42.805,6.029,13.3084,4.60162,2470.357,2023-2-20T03:28:52Z
2023-02-20T01:29:29Z,42.805,6.029,13.3089,4.60127,2470.38,2023-2-20T03:31:56Z
2023-02-20T01:32:32Z,42.805,6.029,13.3085,4.60125,2470.343,2023-2-20T03:34:59Z
2023-02-20T01:35:35Z,42.805,6.029,13.3082,4.60142,2470.38,2023-2-20T03:38:02Z
2023-02-20T01:38:38Z,42.805,6.029,13.3091,4.60123,2470.357,2023-2-20T03:41:05Z
2023-02-20T01:41:41Z,42.805,6.029,13.3102,4.60135,2470.334,2023-2-20T03:44:08Z
2023-02-20T01:44:44Z,42.805,6.029,13.3084,4.60116,2470.38,2023-2-20T03:47:11Z
2023-02-20T01:47:47Z,42.805,6.029,13.3112,4.60127,2470.357,2023-2-20T03:50:14Z
2023-02-20T01:50:51Z,42.805,6.029,13.3084,4.60126,2470.38,2023-2-20T03:53:17Z
2023-02-20T01:53:54Z,42.805,6.029,13.3085,4.60119,2470.366,2023-2-20T03:56:20Z
2023-02-20T01:56:57Z,42.805,6.029,13.3080,4.60117,2470.366,2023-2-20T03:59:23Z
2023-02-20T02:00:00Z,42.805,6.029,13.3086,4.60126,2470.357,2023-2-20T04:02:26Z
2023-02-20T02:03:03Z,42.805,6.029,13.3080,4.60119,2470.38,2023-2-20T04:05:29Z
2023-02-20T02:06:06Z,42.805,6.029,13.3078,4.60130,2470.366,2023-2-20T04:08:33Z
2023-02-20T02:09:09Z,42.805,6.029,13.3087,4.60125,2470.38,2023-2-20T04:11:36Z
2023-02-20T02:12:12Z,42.805,6.029,13.3090,4.60130,2470.366,2023-2-20T04:14:39Z
2023-02-20T02:15:15Z,42.805,6.029,13.3086,4.60138,2470.366,2023-2-20T04:17:42Z
2023-02-20T02:18:18Z,42.805,6.029,13.3082,4.60128,2470.357,2023-2-20T04:20:45Z
2023-02-20T02:21:21Z,42.805,6.029,13.3098,4.60129,2470.366,2023-2-20T04:23:48Z
2023-02-20T02:24:24Z,42.805,6.029,13.3089,4.60117,2470.366,2023-2-20T04:26:51Z
2023-02-20T02:27:28Z,42.805,6.029,13.3091,4.60125,2470.343,2023-2-20T04:29:54Z
2023-02-20T02:30:31Z,42.805,6.029,13.3077,4.60120,2470.366,2023-2-20T04:32:57Z
2023-02-20T02:33:34Z,42.805,6.029,13.3074,4.60124,2470.38,2023-2-20T04:36:00Z
2023-02-20T02:36:37Z,42.805,6.029,13.3076,4.60135,2470.366,2023-2-20T04:39:03Z
2023-02-20T02:39:40Z,42.805,6.029,13.3087,4.60120,2470.357,2023-2-20T04:42:06Z
2023-02-20T02:42:43Z,42.805,6.029,13.3076,4.60125,2470.38,2023-2-20T04:45:09Z
2023-02-20T02:45:46Z,42.805,6.029,13.3090,4.60129,2470.38,2023-2-20T04:48:13Z
2023-02-20T02:48:49Z,42.805,6.029,13.3085,4.60131,2470.404,2023-2-20T04:51:16Z
2023-02-20T02:51:52Z,42.805,6.029,13.3082,4.60129,2470.366,2023-2-20T04:54:19Z
2023-02-20T02:54:55Z,42.805,6.029,13.3079,4.60127,2470.39,2023-2-20T04:57:22Z
2023-02-20T02:57:58Z,42.805,6.029,13.3080,4.60125,2470.404,2023-2-20T05:00:25Z
2023-02-20T03:01:01Z,42.805,6.029,13.3079,4.60126,2470.38,2023-2-20T05:03:28Z
2023-02-20T03:04:04Z,42.805,6.029,13.3082,4.60128,2470.38,2023-2-20T05:06:31Z
2023-02-20T03:07:08Z,42.805,6.029,13.3101,4.60122,2470.45,2023-2-20T05:09:34Z
2023-02-20T03:10:11Z,42.805,6.029,13.3093,4.60130,2470.39,2023-2-20T05:12:37Z
2023-02-20T03:13:14Z,42.805,6.029,13.3078,4.60127,2470.404,2023-2-20T05:15:40Z
2023-02-20T03:16:17Z,42.805,6.029,13.3072,4.60134,2470.413,2023-2-20T05:18:43Z
2023-02-20T03:19:20Z,42.805,6.029,13.3077,4.60122,2470.427,2023-2-20T05:21:46Z
2023-02-20T03:22:23Z,42.805,6.029,13.3085,4.60127,2470.404,2023-2-20T05:24:49Z
2023-02-20T03:25:26Z,42.805,6.029,13.3079,4.60123,2470.413,2023-2-20T05:27:53Z
2023-02-20T03:28:29Z,42.805,6.029,13.3093,4.60112,2470.413,2023-2-20T05:30:56Z
2023-02-20T03:31:32Z,42.805,6.029,13.3073,4.60123,2470.413,2023-2-20T05:33:59Z
2023-02-20T03:34:35Z,42.805,6.029,13.3070,4.60127,2470.46,2023-2-20T05:37:02Z
2023-02-20T03:37:38Z,42.805,6.029,13.3080,4.60121,2470.413,2023-2-20T05:40:05Z
2023-02-20T03:40:41Z,42.805,6.029,13.3072,4.60119,2470.45,2023-2-20T05:43:08Z
2023-02-20T03:43:44Z,42.805,6.029,13.3078,4.60122,2470.45,2023-2-20T05:46:11Z
2023-02-20T03:46:48Z,42.805,6.029,13.3075,4.60132,2470.474,2023-2-20T05:49:14Z
2023-02-20T03:49:51Z,42.805,6.029,13.3081,4.60125,2470.45,2023-2-20T05:52:17Z
2023-02-20T03:52:54Z,42.805,6.029,13.3093,4.60118,2470.46,2023-2-20T05:55:20Z
2023-02-20T03:55:57Z,42.805,6.029,13.3081,4.60122,2470.483,2023-2-20T05:58:23Z
2023-02-20T03:59:00Z,42.805,6.029,13.3071,4.60125,2470.474,2023-2-20T06:01:26Z
2023-02-20T04:02:03Z,42.805,6.029,13.3072,4.60121,2470.474,2023-2-20T06:04:29Z
2023-02-20T04:05:06Z,42.805,6.029,13.3085,4.60140,2470.46,2023-2-20T06:07:33Z
2023-02-20T04:08:09Z,42.805,6.029,13.3084,4.60144,2470.483,2023-2-20T06:10:36Z
2023-02-20T04:11:12Z,42.805,6.029,13.3087,4.60129,2470.497,2023-2-20T06:13:39Z
2023-02-20T04:14:15Z,42.805,6.029,13.3098,4.60130,2470.507,2023-2-20T06:16:42Z
2023-02-20T04:17:18Z,42.805,6.029,13.3092,4.60130,2470.507,2023-2-20T06:19:45Z
2023-02-20T04:20:21Z,42.805,6.029,13.3079,4.60125,2470.483,2023-2-20T06:22:48Z
2023-02-20T04:23:24Z,42.805,6.029,13.3078,4.60117,2470.497,2023-2-20T06:25:51Z
2023-02-20T04:26:28Z,42.805,6.029,13.3083,4.60133,2470.497,2023-2-20T06:28:54Z
2023-02-20T04:29:31Z,42.805,6.029,13.3081,4.60130,2470.497,2023-2-20T06:31:57Z
2023-02-20T04:32:34Z,42.805,6.029,13.3088,4.60125,2470.507,2023-2-20T06:35:00Z
2023-02-20T04:35:37Z,42.805,6.029,13.3096,4.60132,2470.544,2023-2-20T06:38:03Z
2023-02-20T04:38:40Z,42.805,6.029,13.3092,4.60127,2470.53,2023-2-20T06:41:06Z
2023-02-20T04:41:43Z,42.805,6.029,13.3080,4.60117,2470.553,2023-2-20T06:44:10Z
2023-02-20T04:44:46Z,42.805,6.029,13.3078,4.60110,2470.567,2023-2-20T06:47:13Z
2023-02-20T04:47:49Z,42.805,6.029,13.3074,4.60129,2470.544,2023-2-20T06:50:16Z
2023-02-20T04:50:52Z,42.805,6.029,13.3073,4.60122,2470.553,2023-2-20T06:53:19Z
2023-02-20T04:53:55Z,42.805,6.029,13.3091,4.60129,2470.553,2023-2-20T06:56:22Z
2023-02-20T04:56:58Z,42.805,6.029,13.3069,4.60129,2470.553,2023-2-20T06:59:25Z
2023-02-20T05:00:01Z,42.805,6.029,13.3076,4.60124,2470.544,2023-2-20T07:02:28Z
2023-02-20T05:03:04Z,42.805,6.029,13.3085,4.60122,2470.577,2023-2-20T07:05:31Z
2023-02-20T05:06:08Z,42.805,6.029,13.3103,4.60123,2470.6,2023-2-20T07:08:34Z
2023-02-20T05:09:11Z,42.805,6.029,13.3095,4.60130,2470.53,2023-2-20T07:11:37Z
2023-02-20T05:12:14Z,42.805,6.029,13.3081,4.60120,2470.553,2023-2-20T07:14:40Z
2023-02-20T05:15:17Z,42.805,6.029,13.3069,4.60120,2470.553,2023-2-20T07:17:43Z
2023-02-20T05:18:20Z,42.805,6.029,13.3091,4.60127,2470.577,2023-2-20T07:20:46Z
2023-02-20T05:21:23Z,42.805,6.029,13.3082,4.60125,2470.591,2023-2-20T07:23:50Z
2023-02-20T05:24:26Z,42.805,6.029,13.3076,4.60155,2470.577,2023-2-20T07:26:53Z
2023-02-20T05:27:29Z,42.805,6.029,13.3089,4.60119,2470.624,2023-2-20T07:29:56Z
2023-02-20T05:30:32Z,42.805,6.029,13.3078,4.60120,2470.577,2023-2-20T07:32:59Z
2023-02-20T05:33:35Z,42.805,6.029,13.3071,4.60135,2470.624,2023-2-20T07:36:02Z
2023-02-20T05:36:38Z,42.805,6.029,13.3080,4.60126,2470.637,2023-2-20T07:39:05Z
2023-02-20T05:39:41Z,42.805,6.029,13.3085,4.60125,2470.624,2023-2-20T07:42:08Z
2023-02-20T05:42:44Z,42.805,6.029,13.3078,4.60132,2470.6,2023-2-20T07:45:11Z
2023-02-20T05:45:48Z,42.805,6.029,13.3073,4.60125,2470.591,2023-2-20T07:48:14Z
2023-02-20T05:48:51Z,42.805,6.029,13.3082,4.60119,2470.624,2023-2-20T07:51:17Z
2023-02-20T05:51:54Z,42.805,6.029,13.3085,4.60127,2470.61,2023-2-20T07:54:20Z
2023-02-20T05:54:57Z,42.805,6.029,13.3084,4.60119,2470.637,2023-2-20T07:57:23Z
2023-02-20T05:58:00Z,42.805,6.029,13.3080,4.60128,2470.661,2023-2-20T08:00:27Z
2023-02-20T06:01:03Z,42.805,6.029,13.3078,4.60125,2470.661,2023-2-20T08:03:30Z
2023-02-20T06:04:06Z,42.805,6.029,13.3091,4.60135,2470.661,2023-2-20T08:06:33Z
2023-02-20T06:07:09Z,42.805,6.029,13.3089,4.60116,2470.646,2023-2-20T08:09:36Z
2023-02-20T06:10:12Z,42.805,6.029,13.3069,4.60136,2470.624,2023-2-20T08:12:39Z
2023-02-20T06:13:15Z,42.805,6.029,13.3084,4.60121,2470.646,2023-2-20T08:15:42Z
2023-02-20T06:16:18Z,42.805,6.029,13.3082,4.60123,2470.661,2023-2-20T08:18:45Z
2023-02-20T06:19:21Z,42.805,6.029,13.3067,4.60122,2470.661,2023-2-20T08:21:48Z
2023-02-20T06:22:25Z,42.805,6.029,13.3087,4.60121,2470.684,2023-2-20T08:24:51Z
2023-02-20T06:25:28Z,42.805,6.029,13.3078,4.60125,2470.637,2023-2-20T08:27:54Z
2023-02-20T06:28:31Z,42.805,6.029,13.3078,4.60110,2470.624,2023-2-20T08:30:57Z
2023-02-20T06:31:34Z,42.805,6.029,13.3073,4.60121,2470.646,2023-2-20T08:34:00Z
2023-02-20T06:34:37Z,42.805,6.029,13.3068,4.60128,2470.684,2023-2-20T08:37:04Z
2023-02-20T06:37:40Z,42.805,6.029,13.3102,4.60125,2470.661,2023-2-20T08:40:07Z
2023-02-20T06:40:43Z,42.805,6.029,13.3076,4.60119,2470.646,2023-2-20T08:43:10Z
2023-02-20T06:43:46Z,42.805,6.029,13.3067,4.60117,2470.67,2023-2-20T08:46:13Z
2023-02-20T06:46:49Z,42.805,6.029,13.3085,4.60119,2470.684,2023-2-20T08:49:16Z
2023-02-20T06:49:52Z,42.805,6.029,13.3070,4.60114,2470.661,2023-2-20T08:52:19Z
2023-02-20T06:52:55Z,42.805,6.029,13.3090,4.60121,2470.661,2023-2-20T08:55:22Z
2023-02-20T06:55:58Z,42.805,6.029,13.3063,4.60120,2470.684,2023-2-20T08:58:25Z
2023-02-20T06:59:01Z,42.805,6.029,13.3084,4.60121,2470.646,2023-2-20T09:01:28Z
2023-02-20T07:02:05Z,42.805,6.029,13.3074,4.60126,2470.693,2023-2-20T09:04:31Z
2023-02-20T07:05:08Z,42.805,6.029,13.3070,4.60120,2470.707,2023-2-20T09:07:34Z
2023-02-20T07:08:11Z,42.805,6.029,13.3088,4.60119,2470.67,2023-2-20T09:10:37Z
2023-02-20T07:11:14Z,42.805,6.029,13.3070,4.60119,2470.67,2023-2-20T09:13:40Z
2023-02-20T07:14:17Z,42.805,6.029,13.3067,4.60116,2470.693,2023-2-20T09:16:44Z
2023-02-20T07:17:20Z,42.805,6.029,13.3074,4.60127,2470.684,2023-2-20T09:19:47Z
2023-02-20T07:20:23Z,42.805,6.029,13.3071,4.60117,2470.707,2023-2-20T09:22:50Z
2023-02-20T07:23:26Z,42.805,6.029,13.3073,4.60127,2470.693,2023-2-20T09:25:53Z
2023-02-20T07:26:29Z,42.805,6.029,13.3086,4.60123,2470.684,2023-2-20T09:28:56Z
2023-02-20T07:29:32Z,42.805,6.029,13.3088,4.60113,2470.646,2023-2-20T09:31:59Z
2023-02-20T07:32:35Z,42.805,6.029,13.3080,4.60127,2470.646,2023-2-20T09:35:02Z
2023-02-20T07:35:38Z,42.805,6.029,13.3077,4.60128,2470.707,2023-2-20T09:38:05Z
2023-02-20T07:38:41Z,42.805,6.029,13.3091,4.60111,2470.67,2023-2-20T09:41:08Z
2023-02-20T07:41:45Z,42.805,6.029,13.3074,4.60120,2470.67,2023-2-20T09:44:11Z
2023-02-20T07:44:48Z,42.805,6.029,13.3068,4.60114,2470.684,2023-2-20T09:47:14Z
2023-02-20T07:47:51Z,42.805,6.029,13.3071,4.60120,2470.693,2023-2-20T09:50:17Z
2023-02-20T07:50:54Z,42.805,6.029,13.3070,4.60117,2470.684,2023-2-20T09:53:21Z
2023-02-20T07:53:57Z,42.805,6.029,13.3070,4.60124,2470.693,2023-2-20T09:56:24Z
2023-02-20T07:57:00Z,42.805,6.029,13.3078,4.60116,2470.717,2023-2-20T09:59:27Z
2023-02-20T08:00:03Z,42.805,6.029,13.3079,4.60114,2470.693,2023-2-20T10:02:30Z
2023-02-20T08:03:06Z,42.805,6.029,13.3078,4.60114,2470.67,2023-2-20T10:05:33Z
2023-02-20T08:06:09Z,42.805,6.029,13.3064,4.60106,2470.707,2023-2-20T10:08:36Z
2023-02-20T08:09:12Z,42.805,6.029,13.3106,4.60110,2470.707,2023-2-20T10:11:39Z
2023-02-20T08:12:15Z,42.805,6.029,13.3065,4.60119,2470.67,2023-2-20T10:14:42Z
2023-02-20T08:15:18Z,42.805,6.029,13.3073,4.60108,2470.707,2023-2-20T10:17:45Z
2023-02-20T08:18:22Z,42.805,6.029,13.3067,4.60121,2470.693,2023-2-20T10:20:48Z
2023-02-20T08:21:25Z,42.805,6.029,13.3067,4.60116,2470.684,2023-2-20T10:23:51Z
2023-02-20T08:24:28Z,42.805,6.029,13.3063,4.60119,2470.67,2023-2-20T10:26:54Z
2023-02-20T08:27:31Z,42.805,6.029,13.3070,4.60125,2470.693,2023-2-20T10:29:58Z
2023-02-20T08:30:34Z,42.805,6.029,13.3071,4.60119,2470.661,2023-2-20T10:33:01Z
2023-02-20T08:33:37Z,42.805,6.029,13.3070,4.60115,2470.707,2023-2-20T10:36:04Z
2023-02-20T08:36:40Z,42.805,6.029,13.3071,4.60127,2470.693,2023-2-20T10:39:07Z
2023-02-20T08:39:43Z,42.805,6.029,13.3073,4.60123,2470.693,2023-2-20T10:42:10Z
2023-02-20T08:42:46Z,42.805,6.029,13.3076,4.60119,2470.73,2023-2-20T10:45:13Z
2023-02-20T08:45:49Z,42.805,6.029,13.3077,4.60117,2470.661,2023-2-20T10:48:16Z
2023-02-20T08:48:52Z,42.805,6.029,13.3065,4.60114,2470.684,2023-2-20T10:51:19Z
2023-02-20T08:51:55Z,42.805,6.029,13.3069,4.60117,2470.684,2023-2-20T10:54:22Z
2023-02-20T08:54:59Z,42.805,6.029,13.3068,4.60117,2470.684,2023-2-20T10:57:25Z
2023-02-20T08:58:02Z,42.805,6.029,13.3065,4.60117,2470.693,2023-2-20T11:00:28Z
2023-02-20T09:01:05Z,42.805,6.029,13.3078,4.60115,2470.67,2023-2-20T11:03:31Z
2023-02-20T09:04:08Z,42.805,6.029,13.3078,4.60122,2470.624,2023-2-20T11:06:35Z
2023-02-20T09:07:11Z,42.805,6.029,13.3067,4.60122,2470.707,2023-2-20T11:09:38Z
2023-02-20T09:10:14Z,42.805,6.029,13.3065,4.60116,2470.693,2023-2-20T11:12:41Z
2023-02-20T09:13:17Z,42.805,6.029,13.3084,4.60120,2470.661,2023-2-20T11:15:44Z
2023-02-20T09:16:20Z,42.805,6.029,13.3073,4.60122,2470.684,2023-2-20T11:18:47Z
2023-02-20T09:19:23Z,42.805,6.029,13.3079,4.60112,2470.646,2023-2-20T11:21:50Z
2023-02-20T09:22:26Z,42.805,6.029,13.3076,4.60118,2470.73,2023-2-20T11:24:53Z
2023-02-20T09:25:29Z,42.805,6.029,13.3071,4.60125,2470.67,2023-2-20T11:27:56Z
2023-02-20T09:28:32Z,42.805,6.029,13.3074,4.60117,2470.67,2023-2-20T11:30:59Z
2023-02-20T09:31:36Z,42.805,6.029,13.3081,4.60122,2470.661,2023-2-20T11:34:02Z
2023-02-20T09:34:39Z,42.805,6.029,13.3069,4.60120,2470.661,2023-2-20T11:37:05Z
2023-02-20T09:37:42Z,42.805,6.029,13.3068,4.60128,2470.646,2023-2-20T11:40:08Z
2023-02-20T09:40:45Z,42.805,6.029,13.3071,4.60117,2470.684,2023-2-20T11:43:12Z
2023-02-20T09:43:48Z,42.805,6.029,13.3080,4.60110,2470.661,2023-2-20T11:46:15Z
2023-02-20T09:46:51Z,42.805,6.029,13.3070,4.60138,2470.661,2023-2-20T11:49:18Z
2023-02-20T09:49:54Z,42.805,6.029,13.3074,4.60112,2470.684,2023-2-20T11:52:21Z
2023-02-20T09:52:57Z,42.805,6.029,13.3067,4.60129,2470.661,2023-2-20T11:55:24Z
2023-02-20T09:56:00Z,42.805,6.029,13.3066,4.60115,2470.637,2023-2-20T11:58:27Z
2023-02-20T09:59:03Z,42.805,6.029,13.3073,4.60116,2470.646,2023-2-20T12:01:30Z
2023-02-20T10:02:06Z,42.805,6.029,13.3079,4.60107,2470.624,2023-2-20T12:04:33Z
2023-02-20T10:05:09Z,42.805,6.029,13.3076,4.60126,2470.624,2023-2-20T12:07:36Z
2023-02-20T10:08:13Z,42.805,6.029,13.3076,4.60129,2470.614,2023-2-20T12:10:39Z
2023-02-20T10:11:16Z,42.805,6.029,13.3071,4.60104,2470.624,2023-2-20T12:13:42Z
2023-02-20T10:14:19Z,42.805,6.029,13.3074,4.60099,2470.661,2023-2-20T12:16:45Z
2023-02-20T10:17:22Z,42.805,6.029,13.3074,4.60127,2470.614,2023-2-20T12:19:49Z
2023-02-20T10:20:25Z,42.805,6.029,13.3066,4.60110,2470.637,2023-2-20T12:22:52Z
2023-02-20T10:23:28Z,42.805,6.029,13.3082,4.60108,2470.661,2023-2-20T12:25:55Z
2023-02-20T10:26:31Z,42.805,6.029,13.3066,4.60117,2470.637,2023-2-20T12:28:58Z
2023-02-20T10:29:34Z,42.805,6.029,13.3070,4.60104,2470.614,2023-2-20T12:32:01Z
2023-02-20T10:32:37Z,42.805,6.029,13.3076,4.60125,2470.6,2023-2-20T12:35:04Z
2023-02-20T10:35:40Z,42.805,6.029,13.3069,4.60110,2470.6,2023-2-20T12:38:07Z
2023-02-20T10:38:43Z,42.805,6.029,13.3069,4.60116,2470.624,2023-2-20T12:41:10Z
2023-02-20T10:41:46Z,42.805,6.029,13.3088,4.60119,2470.6,2023-2-20T12:44:13Z
2023-02-20T10:44:50Z,42.805,6.029,13.3075,4.60124,2470.591,2023-2-20T12:47:16Z
2023-02-20T10:47:53Z,42.805,6.029,13.3074,4.60111,2470.577,2023-2-20T12:50:19Z
2023-02-20T10:50:56Z,42.805,6.029,13.3066,4.60126,2470.614,2023-2-20T12:53:22Z
2023-02-20T10:53:59Z,42.805,6.029,13.3076,4.60129,2470.614,2023-2-20T12:56:26Z
2023-02-20T10:57:02Z,42.805,6.029,13.3073,4.60117,2470.591,2023-2-20T12:59:29Z
2023-02-20T11:00:05Z,42.805,6.029,13.3076,4.60112,2470.577,2023-2-20T13:02:32Z
2023-02-20T11:03:08Z,42.805,6.029,13.3076,4.60119,2470.567,2023-2-20T13:05:35Z
2023-02-20T11:06:11Z,42.805,6.029,13.3084,4.60122,2470.567,2023-2-20T13:08:38Z
2023-02-20T11:09:14Z,42.805,6.029,13.3061,4.60110,2470.591,2023-2-20T13:11:41Z
2023-02-20T11:12:17Z,42.805,6.029,13.3069,4.60117,2470.553,2023-2-20T13:14:44Z
2023-02-20T11:15:20Z,42.805,6.029,13.3065,4.60108,2470.577,2023-2-20T13:17:47Z
2023-02-20T11:18:23Z,42.805,6.029,13.3076,4.60117,2470.567,2023-2-20T13:20:50Z
2023-02-20T11:21:27Z,42.805,6.029,13.3070,4.60117,2470.567,2023-2-20T13:23:53Z
2023-02-20T11:24:30Z,42.805,6.029,13.3070,4.60135,2470.544,2023-2-20T13:26:56Z
2023-02-20T11:27:33Z,42.805,6.029,13.3086,4.60111,2470.567,2023-2-20T13:29:59Z
2023-02-20T11:30:36Z,42.805,6.029,13.3068,4.60127,2470.507,2023-2-20T13:33:03Z
2023-02-20T11:33:39Z,42.805,6.029,13.3076,4.60122,2470.553,2023-2-20T13:36:06Z
2023-02-20T11:36:42Z,42.805,6.029,13.3080,4.60125,2470.52,2023-2-20T13:39:09Z
2023-02-20T11:39:45Z,42.805,6.029,13.3067,4.60114,2470.52,2023-2-20T13:42:12Z
2023-02-20T11:42:48Z,42.805,6.029,13.3076,4.60124,2470.553,2023-2-20T13:45:15Z
2023-02-20T11:45:51Z,42.805,6.029,13.3079,4.60127,2470.507,2023-2-20T13:48:18Z
2023-02-20T11:48:54Z,42.805,6.029,13.3074,4.60133,2470.544,2023-2-20T13:51:21Z
2023-02-20T11:51:57Z,42.805,6.029,13.3070,4.60114,2470.497,2023-2-20T13:54:24Z
2023-02-20T11:55:00Z,42.805,6.029,13.3073,4.60106,2470.507,2023-2-20T13:57:27Z
2023-02-20T11:58:04Z,42.805,6.029,13.3067,4.60116,2470.497,2023-2-20T14:00:30Z
2023-02-20T12:01:07Z,42.805,6.029,13.3076,4.60116,2470.53,2023-2-20T14:03:33Z
2023-02-20T12:04:10Z,42.805,6.029,13.3078,4.60116,2470.507,2023-2-20T14:06:37Z
2023-02-20T12:07:13Z,42.805,6.029,13.3066,4.60120,2470.507,2023-2-20T14:09:40Z
2023-02-20T12:10:16Z,42.805,6.029,13.3077,4.60108,2470.46,2023-2-20T14:12:43Z
2023-02-20T12:13:19Z,42.805,6.029,13.3074,4.60116,2470.544,2023-2-20T14:15:46Z
2023-02-20T12:16:22Z,42.805,6.029,13.3073,4.60111,2470.497,2023-2-20T14:18:49Z
2023-02-20T12:19:25Z,42.805,6.029,13.3073,4.60127,2470.52,2023-2-20T14:21:52Z
2023-02-20T12:22:28Z,42.805,6.029,13.3073,4.60123,2470.507,2023-2-20T14:24:55Z
2023-02-20T12:25:31Z,42.805,6.029,13.3075,4.60111,2470.507,2023-2-20T14:27:58Z
2023-02-20T12:28:34Z,42.805,6.029,13.3059,4.60126,2470.497,2023-2-20T14:31:01Z
2023-02-20T12:31:37Z,42.805,6.029,13.3069,4.60119,2470.46,2023-2-20T14:34:04Z
2023-02-20T12:34:41Z,42.805,6.029,13.3070,4.60127,2470.483,2023-2-20T14:37:07Z
2023-02-20T12:37:44Z,42.805,6.029,13.3076,4.60114,2470.483,2023-2-20T14:40:10Z
2023-02-20T12:40:47Z,42.805,6.029,13.3084,4.60126,2470.437,2023-2-20T14:43:14Z
2023-02-20T12:43:50Z,42.805,6.029,13.3067,4.60122,2470.437,2023-2-20T14:46:17Z
2023-02-20T12:46:53Z,42.805,6.029,13.3066,4.60124,2470.45,2023-2-20T14:49:20Z
2023-02-20T12:49:56Z,42.805,6.029,13.3072,4.60119,2470.46,2023-2-20T14:52:23Z
2023-02-20T12:52:59Z,42.805,6.029,13.3067,4.60123,2470.45,2023-2-20T14:55:26Z
2023-02-20T12:56:02Z,42.805,6.029,13.3070,4.60117,2470.46,2023-2-20T14:58:29Z
2023-02-20T12:59:05Z,42.805,6.029,13.3074,4.60117,2470.46,2023-2-20T15:01:32Z
2023-02-20T13:02:08Z,42.805,6.029,13.3047,4.60129,2470.45,2023-2-20T15:04:35Z
2023-02-20T13:05:11Z,42.805,6.029,13.3074,4.60127,2470.474,2023-2-20T15:07:38Z
2023-02-20T13:08:14Z,42.805,6.029,13.3068,4.60127,2470.437,2023-2-20T15:10:41Z
2023-02-20T13:11:18Z,42.805,6.029,13.3084,4.60127,2470.437,2023-2-20T15:13:44Z
2023-02-20T13:14:21Z,42.805,6.029,13.3086,4.60110,2470.45,2023-2-20T15:16:47Z
2023-02-20T13:17:24Z,42.805,6.029,13.3076,4.60104,2470.413,2023-2-20T15:19:51Z
2023-02-20T13:20:27Z,42.805,6.029,13.3063,4.60119,2470.45,2023-2-20T15:22:54Z
2023-02-20T13:23:30Z,42.805,6.029,13.3063,4.60115,2470.45,2023-2-20T15:25:57Z
2023-02-20T13:26:33Z,42.805,6.029,13.3068,4.60125,2470.437,2023-2-20T15:29:00Z
2023-02-20T13:29:36Z,42.805,6.029,13.3063,4.60128,2470.427,2023-2-20T15:32:03Z
2023-02-20T13:32:39Z,42.805,6.029,13.3075,4.60114,2470.437,2023-2-20T15:35:06Z
2023-02-20T13:35:42Z,42.805,6.029,13.3073,4.60117,2470.437,2023-2-20T15:38:09Z
2023-02-20T13:38:45Z,42.805,6.029,13.3085,4.60117,2470.437,2023-2-20T15:41:12Z
2023-02-20T13:41:48Z,42.805,6.029,13.3073,4.60134,2470.413,2023-2-20T15:44:15Z
2023-02-20T13:44:51Z,42.805,6.029,13.3073,4.60125,2470.413,2023-2-20T15:47:18Z
2023-02-20T13:47:55Z,42.805,6.029,13.3073,4.60115,2470.404,2023-2-20T15:50:21Z
2023-02-20T13:50:58Z,42.805,6.029,13.3073,4.60130,2470.437,2023-2-20T15:53:24Z
2023-02-20T13:54:01Z,42.805,6.029,13.3069,4.60126,2470.413,2023-2-20T15:56:28Z
2023-02-20T13:57:04Z,42.805,6.029,13.3079,4.60130,2470.427,2023-2-20T15:59:31Z
2023-02-20T14:00:07Z,42.805,6.029,13.3090,4.60113,2470.427,2023-2-20T16:02:34Z
2023-02-20T14:03:10Z,42.805,6.029,13.3077,4.60122,2470.39,2023-2-20T16:05:37Z
2023-02-20T14:06:13Z,42.805,6.029,13.3085,4.60117,2470.413,2023-2-20T16:08:40Z
2023-02-20T14:09:16Z,42.805,6.029,13.3102,4.60135,2470.427,2023-2-20T16:11:43Z
2023-02-20T14:12:19Z,42.805,6.029,13.3085,4.60126,2470.427,2023-2-20T16:14:46Z
2023-02-20T14:15:22Z,42.805,6.029,13.3084,4.60125,2470.427,2023-2-20T16:17:49Z
2023-02-20T14:18:25Z,42.805,6.029,13.3086,4.60142,2470.427,2023-2-20T16:20:52Z
2023-02-20T14:21:28Z,42.805,6.029,13.3098,4.60152,2470.39,2023-2-20T16:23:55Z
2023-02-20T14:24:32Z,42.805,6.029,13.3098,4.60125,2470.413,2023-2-20T16:26:58Z
2023-02-20T14:27:35Z,42.805,6.029,13.3089,4.60120,2470.404,2023-2-20T16:30:01Z
2023-02-20T14:30:38Z,42.805,6.029,13.3072,4.60113,2470.39,2023-2-20T16:33:05Z
2023-02-20T14:33:41Z,42.805,6.029,13.3078,4.60123,2470.39,2023-2-20T16:36:08Z
2023-02-20T14:36:44Z,42.805,6.029,13.3078,4.60126,2470.404,2023-2-20T16:39:11Z
2023-02-20T14:39:47Z,42.805,6.029,13.3082,4.60119,2470.404,2023-2-20T16:42:14Z
2023-02-20T14:42:50Z,42.805,6.029,13.3082,4.60119,2470.404,2023-2-20T16:45:17Z
2023-02-20T14:45:53Z,42.805,6.029,13.3088,4.60112,2470.404,2023-2-20T16:48:20Z
2023-02-20T14:48:56Z,42.805,6.029,13.3082,4.60125,2470.437,2023-2-20T16:51:23Z
2023-02-20T14:51:59Z,42.805,6.029,13.3086,4.60122,2470.39,2023-2-20T16:54:26Z
2023-02-20T14:55:02Z,42.805,6.029,13.3076,4.60115,2470.39,2023-2-20T16:57:29Z
2023-02-20T14:58:06Z,42.805,6.029,13.3066,4.60135,2470.413,2023-2-20T17:00:32Z
2023-02-20T15:01:09Z,42.805,6.029,13.3074,4.60137,2470.413,2023-2-20T17:03:35Z
2023-02-20T15:04:12Z,42.805,6.029,13.3076,4.60119,2470.413,2023-2-20T17:06:39Z
2023-02-20T15:07:15Z,42.805,6.029,13.3076,4.60124,2470.427,2023-2-20T17:09:42Z
2023-02-20T15:10:18Z,42.805,6.029,13.3084,4.60119,2470.45,2023-2-20T17:12:45Z